COSMOS 2386

Satellite information

Favourite Embed

Satellite Type and Status

PAYLOADIN ORBIT

Key statistics

Satellite COSMOS 2386 at a glance.

Uptime

8653

Days in orbit

Revolutions

≈ 12.6

Per day

Orbit

LEO

Low Earth Orbit

Inclination

82.5

Latest

Satellite identification and parameters

Extended collection of information and parameters for COSMOS 2386.

Object identification

Identified? True

Debris? False

Object name: COSMOS 2386

International designator: 2001-058C

Object number (NORAD): 27057

Object ID (CCSDS): 27057

Country: COMMONWEALTH OF INDEPENDENT STATES (CIS)

Current information (Y/N): Y

RCS size: MEDIUM

Orbital parameters

Period: 114.14 minutes

Inclination: 82.5448 deg

SMA: 7794.451 km

Apoapsis: 1416.987 km

Periapsis: 1415.645 km

RAAN: 36.2891 deg

Eccentricy: 0.0000861

Argument of periapsis: 79.2175 deg

Mean anomaly: 280.9013 deg

Mean motion: 12.61608131 rev/day

Mean motion (dot): 0.00000018 rev/day2

B* drag term: 0.00004075527 1/REarth

Two-line elements (TLE)

Creation date: Sept. 6, 2025, 2:09 a.m.

Reference frame: TEME

Reference center: EARTH

Epoch: Sept. 5, 2025, 5:01 p.m. UTC

TLE line 0: 0 COSMOS 2386

TLE line 1: 1 27057U 01058C 25248.70961181 .00000018 00000-0 40755-4 0 9993

TLE line 2: 2 27057 82.5448 36.2891 0000861 79.2175 280.9013 12.61608131 90639

Live tracking on map

Real-time ground track for satellite COSMOS 2386.

In-orbit conjunctions

There are no conjunctions computed for COSMOS 2386, at the moment. Check back to stay up to date, as we update our databases every day.

Go to all conjunctions

Associated space launch

Gonets- satellite were the civilian derivate of the military Strela-3 satellite system. The Gonets system was offered to support international health organizations to meet their global communications needs for the transfer of medical data and records to remote sites. Strela-3 was second generation of strategic store-dump military communications satellite. Development of this generation to replace the first generation Strela-1M and Strela-2M satellites began in 1973.

COSMOS 2386 was lifted into orbit during the mission ‘Tsiklon-3 | Strela-3 128 to 130 & Gonets 10 to 12’, on board a Tsiklon-3 space rocket.

The launch took place on Dec. 28, 2001, 3:24 a.m. from 32/1.

For more information about the launch, click the button.

Launch to space Tsiklon-3 | Strela-3 128 to 130 & Gonets 10 to 12
Tsiklon-3 | Strela-3 128 to 130 & Gonets 10 to 12

Agency: N/A

Status: Launch Successful

Launch date: Dec. 28, 2001, 3:24 a.m. UTC

Rocket: Tsiklon-3

Launch pad: 32/1

Location: Plesetsk Cosmodrome, Russian Federation

...

Latest news about this satellite

There are no fresh news available about this satellite. Check back as we update our databases every day.


Newsletter sign-up

Weekly statistics, charts and insights to help you stay on top of the space industry.